Location: Białystok
(53.1343°N, 23.1544°E)
Time: 10:22:10
(UTC+02:00)

ISS - Pass Details

Date: 26 January 2019
Orbit: 411 x 421 km, 51.6° (Epoch: 18 October)

Event Time Altitude Azimuth Distance (km) Brightness Sun altitude
Rises 17:41:41 0° 233° (SW) 2,409 1.3 -15.1°
Reaches altitude 10° 17:43:52 10° 225° (SW) 1,546 0.0 -15.4°
Maximum altitude 17:47:06 37° 157° (SSE) 703 -2.8 -15.9°
Enters shadow 17:48:04 30° 120° (ESE) 813 -2.7 -16.0°
